This demonstration page uses our WeatherBlox Daily Observations layout. Learn more.

Left ArrowRight Arrow

Hourly Observations for August 30, 2021

Temp ( °F °C ) Dew Point ( °F °C ) Humidity (%) Winds ( mph kmh ) Pressure ( in mb ) Visibility ( mi km ) Precip ( " mm )
12:56 am 00:56 Cloudy 69 20.6 66 18.9 90 90 SSE 14 22 30.03 1017 10 16 0.00 0.00
1:56 am 01:56 Cloudy 69 20.6 65 18.3 87 87 S 10 17 30.02 1017 10 16 0.00 0.00
2:56 am 02:56 Cloudy 68 20 65 18.3 90 90 S 7 11 30.01 1016 10 16 0.00 0.00
3:56 am 03:56 Cloudy 68 20 65 18.3 90 90 S 3 6 29.99 1016 9 14 0.00 0.00
4:56 am 04:56 Cloudy 68 20 65 18.3 90 90 SSE 5 7 29.98 1015 10 16 0.00 0.00
5:56 am 05:56 Cloudy 67 19.4 64 17.8 91 91 Calm 29.98 1015 10 16 0.00 0.00
6:56 am 06:56 Cloudy 67 19.4 64 17.8 91 91 ESE 3 6 29.98 1015 10 16 0.00 0.00
7:56 am 07:56 Cloudy 67 19.4 65 18.3 93 93 SE 6 9 29.98 1015 10 16 0.00 0.00
8:30 am 08:30 Mostly Cloudy 68 20 64 18 88 88 SSE 6 9 29.95 1014 10 16 0.00 0.00
8:51 am 08:51 Cloudy 70 21 64 18 83 83 SSE 8 13 29.94 1014 10 16 0.00 0.00
8:56 am 08:56 Mostly Cloudy 69 20.6 65 18.3 87 87 SSE 7 11 29.98 1015 10 16 0.00 0.00
9:24 am 09:24 Partly Cloudy 72 22 66 19 83 83 S 10 17 29.92 1013 10 16 0.00 0.00
9:56 am 09:56 Mostly Sunny 73 22.8 66 18.9 79 79 S 9 15 29.96 1015 10 16 0.00 0.00
10:56 am 10:56 Sunny 75 23.9 68 20 79 79 S 7 11 29.94 1014 10 16 0.00 0.00
11:56 am 11:56 Mostly Cloudy 77 25 69 20.6 77 77 S 7 11 29.93 1013 10 16 0.00 0.00
12:17 pm 12:17 Partly Cloudy 79 26 70 21 74 74 VRB 5 7 29.85 1011 10 16 0.00 0.00
12:56 pm 12:56 Partly Cloudy 81 27.2 70 21.1 69 69 SSE 9 15 29.89 1012 10 16 0.00 0.00
1:45 pm 13:45 Mostly Cloudy 84 29 72 22 66 66 SSE 12 19 29.79 1009 10 16 0.00 0.00
1:56 pm 13:56 Mostly Cloudy 83 28.3 71 21.7 67 67 SSE 10 17 29.87 1011 10 16 0.00 0.00
2:10 pm 14:10 Mostly Cloudy 82 28 72 22 70 70 SSE 14 22 29.79 1009 10 16 0.00 0.00
2:56 pm 14:56 Partly Cloudy 83 28.3 71 21.7 67 67 SSE 13 20 29.84 1011 10 16 0.00 0.00
3:56 pm 15:56 Mostly Cloudy 87 30.6 73 22.8 63 63 SSE 14 22 29.80 1009 10 16 0.00 0.00
4:56 pm 16:56 Sunny 87 30.6 71 21.7 59 59 SSE 15 24 29.78 1009 10 16 0.00 0.00
5:56 pm 17:56 Sunny 86 30 71 21.7 61 61 SE 13 20 29.76 1008 10 16 0.00 0.00
6:56 pm 18:56 Sunny 83 28.3 71 21.7 67 67 SE 15 24 29.76 1008 10 16 0.00 0.00
7:56 pm 19:56 Sunny 80 26.7 69 20.6 69 69 SE 13 20 29.75 1008 10 16 0.00 0.00
8:56 pm 20:56 Clear 77 25 69 20.6 77 77 SE 12 19 29.75 1008 10 16 0.00 0.00
9:56 pm 21:56 Clear 75 23.9 69 20.6 82 82 SE 12 19 29.77 1008 10 16 0.00 0.00
10:56 pm 22:56 Clear 75 23.9 68 20 79 79 SSE 15 24 29.75 1008 10 16 0.00 0.00
11:56 pm 23:56 Clear 75 23.9 67 19.4 76 76 SSE 15 24 29.72 1007 10 16 0.00 0.00

Powered by AerisWeather